(306982) = 2001 VQ107

Discovered at Socorro on 2001-11-12 by LINEAR.

Orbit

Orbit type: Main Belt

Note: WebGL enabled browser required.

epoch2024-03-31.0
epoch JD2460400.5
perihelion date2023-09-01.01846
perihelion JD2460188.51846
argument of perihelion (°)184.35298
ascending node (°)286.94295
inclination (°)2.43202
eccentricity0.1725338
perihelion distance (AU)1.9315393
Tisserand w.r.t. Jupiter3.5
ΔV w.r.t. Earth (km/sec)8.7
semimajor axis (AU)2.3342819
mean anomaly (°)58.58304
mean daily motion (°/day)0.27635920
aphelion distance (AU)2.737
period (years)3.57
P-vector [x]-0.36311959
P-vector [y]0.85613311
P-vector [z]0.36766868
Q-vector [x]-0.93085790
Q-vector [y]-0.31614498
Q-vector [z]-0.18318276
absolute magnitude17.72
phase slope0.15
uncertainty0
referenceMPEC 2024-D82
observations used227
oppositions11
arc length (days)8130
first opposition used2001
last opposition used2024
residual rms (arc-secs)0.74
perturbers coarse indicatorM-v
perturbers precise indicator003Ek
first observation date used2001-11-12.0
last observation date used2024-02-15.0
computer nameMPCLINUX
JD of orbit computation2456376.470150
perihelion JD uncertainty (days)1.1697E-04
argument of perihelion uncertainty (°)1.1510E-04
ascending node uncertainty (°)1.0781E-04
inclination uncertainty (°)5.0486E-06
eccentricity uncertainty 5.1253E-08
perihelion distance uncertainty (AU)1.1994E-07
Minimum Orbit Intersection Distances (in AU)
for orbit epoch: 2460400.5, reference: E2024-G95
Mercury1.61385
Venus1.21351
Earth0.94866
Mars0.30827
Jupiter2.37325
Saturn7.05107
Uranus16.2997
Neptune27.4119

Observations

230 total observations over interval: 2001 11 12.30656 – 2024 02 15.574874
These data are available for download (format description).

Date (UT) J2000 RA J2000 Dec Magn Location Ref
2001 11 12.30656 03 43 33.53 +23 31 43.6 19.7   704 – Lincoln Laboratory ETS, New Mexico MPS 44883
2001 11 12.32131 03 43 32.62 +23 31 39.1 20.2   704 – Lincoln Laboratory ETS, New Mexico MPS 44883
2001 11 12.33603 03 43 31.58 +23 31 35.3 20.0   704 – Lincoln Laboratory ETS, New Mexico MPS 44883
2001 11 19.28744 03 36 10.42 +23 02 21.1 19.1   704 – Lincoln Laboratory ETS, New Mexico MPS 44883
2001 11 19.31678 03 36 08.39 +23 02 14.3 20.0   704 – Lincoln Laboratory ETS, New Mexico MPS 44883
2001 11 19.33145 03 36 07.43 +23 02 09.6 19.7   704 – Lincoln Laboratory ETS, New Mexico MPS 44883
2001 11 19.34612 03 36 06.41 +23 02 05.4 19.6   704 – Lincoln Laboratory ETS, New Mexico MPS 44883
2001 11 24.23448 03 30 52.75 +22 38 42.9 19.9   704 – Lincoln Laboratory ETS, New Mexico MPS 49629
2001 11 24.25026 03 30 51.72 +22 38 38.0 20.1   704 – Lincoln Laboratory ETS, New Mexico MPS 49629
2001 11 24.27929 03 30 49.76 +22 38 29.5 19.7   704 – Lincoln Laboratory ETS, New Mexico MPS 49629
2001 12 15.15050 03 13 02.39 +20 55 39.0 20.1   704 – Lincoln Laboratory ETS, New Mexico MPS 44883
2001 12 15.16558 03 13 01.86 +20 55 35.6 20.6   704 – Lincoln Laboratory ETS, New Mexico MPS 44883
2001 12 15.18316 03 13 01.22 +20 55 29.9 20.2   704 – Lincoln Laboratory ETS, New Mexico MPS 44883
2001 12 15.21554 03 13 00.07 +20 55 21.7 20.1   704 – Lincoln Laboratory ETS, New Mexico MPS 44883
2001 12 19.17778 03 11 07.01 +20 39 13.8 20.1   704 – Lincoln Laboratory ETS, New Mexico MPS 44883
2001 12 19.19294 03 11 06.68 +20 39 09.2 20.3   704 – Lincoln Laboratory ETS, New Mexico MPS 44884
2001 12 19.20811 03 11 06.22 +20 39 05.8 19.9   704 – Lincoln Laboratory ETS, New Mexico MPS 44884
2002 01 06.07809 03 10 11.58 +19 54 52.8 21.4 V 691 – Steward Observatory, Kitt Peak-Spacewatch MPS 46706
2002 01 06.10013 03 10 11.91 +19 54 51.8 21.2 V 691 – Steward Observatory, Kitt Peak-Spacewatch MPS 46706
2002 01 06.12204 03 10 12.24 +19 54 50.6 21.3 V 691 – Steward Observatory, Kitt Peak-Spacewatch MPS 46706
2006 01 26.38572 10 44 49.16 +05 04 37.6 20.2 V 691 – Steward Observatory, Kitt Peak-Spacewatch MPS 162720
2006 01 26.40307 10 44 48.62 +05 04 37.9 20.3 V 691 – Steward Observatory, Kitt Peak-Spacewatch MPS 162720
2006 01 26.42043 10 44 48.07 +05 04 38.3 20.3 V 691 – Steward Observatory, Kitt Peak-Spacewatch MPS 162720
2006 01 31.38888 10 42 05.11 +05 09 09.8 21.2 V 703 – Catalina Sky Survey MPS 162720
2006 01 31.39422 10 42 04.89 +05 09 09.2 19.9 V 703 – Catalina Sky Survey MPS 162720
2006 01 31.39955 10 42 04.60 +05 09 11.1 19.9 V 703 – Catalina Sky Survey MPS 162720
2006 01 31.40486 10 42 04.35 +05 09 13.8 20.6 V 703 – Catalina Sky Survey MPS 162720
2006 02 01.39631 10 41 26.37 +05 10 41.7 20.1 V G96 – Mt. Lemmon Survey MPS 162720
2006 02 01.40443 10 41 26.01 +05 10 42.4 20.1 V G96 – Mt. Lemmon Survey MPS 162720
2006 02 01.41254 10 41 25.69 +05 10 43.3 20.1 V G96 – Mt. Lemmon Survey MPS 162720
2006 02 01.42065 10 41 25.33 +05 10 44.1 20.2 V G96 – Mt. Lemmon Survey MPS 162720
2006 02 25.17865 10 20 27.46 +06 31 36.4 19.7 V 691 – Steward Observatory, Kitt Peak-Spacewatch MPS 164986
2006 02 25.19591 10 20 26.41 +06 31 41.4 19.7 V 691 – Steward Observatory, Kitt Peak-Spacewatch MPS 164986
2006 02 25.21319 10 20 25.35 +06 31 46.1 19.7 V 691 – Steward Observatory, Kitt Peak-Spacewatch MPS 164986
2006 03 03.24420 10 14 43.08 +06 58 54.0 19.7 V G96 – Mt. Lemmon Survey MPS 165961
2006 03 03.25046 10 14 42.72 +06 58 55.7 19.9 V G96 – Mt. Lemmon Survey MPS 165961
2006 03 03.25656 10 14 42.39 +06 58 57.5 19.9 V G96 – Mt. Lemmon Survey MPS 165961
2006 03 03.26266 10 14 42.03 +06 58 59.0 19.8 V G96 – Mt. Lemmon Survey MPS 165961
2006 03 23.24347 10 01 12.79 +08 12 04.7 20.3 V G96 – Mt. Lemmon Survey MPS 166952
2006 03 23.24713 10 01 12.72 +08 12 05.4 20.2 V G96 – Mt. Lemmon Survey MPS 166952
2006 03 23.25071 10 01 12.64 +08 12 05.9 20.5 V G96 – Mt. Lemmon Survey MPS 166952
2006 03 23.25429 10 01 12.54 +08 12 06.3 20.4 V G96 – Mt. Lemmon Survey MPS 166952
2006 03 24.11679 10 00 53.74 +08 14 13.1 21.1 V 691 – Steward Observatory, Kitt Peak-Spacewatch MPS 166952
2006 03 24.13816 10 00 53.26 +08 14 16.0 21.0 V 691 – Steward Observatory, Kitt Peak-Spacewatch MPS 166952
2006 03 24.15951 10 00 52.72 +08 14 19.3 21.0 V 691 – Steward Observatory, Kitt Peak-Spacewatch MPS 166952
2008 09 23.40520 02 23 19.19 +18 24 29.9 20.7 V 691 – Steward Observatory, Kitt Peak-Spacewatch MPS 256558
2008 09 23.42283 02 23 18.77 +18 24 29.4 21.0 V 691 – Steward Observatory, Kitt Peak-Spacewatch MPS 256558
2008 09 23.44045 02 23 18.38 +18 24 29.0 20.6 V 691 – Steward Observatory, Kitt Peak-Spacewatch MPS 256558
2008 09 26.36075 02 22 09.58 +18 22 38.0   691 – Steward Observatory, Kitt Peak-Spacewatch MPS 256558
2008 09 26.37837 02 22 09.08 +18 22 37.0   691 – Steward Observatory, Kitt Peak-Spacewatch MPS 256558
2008 09 26.39599 02 22 08.56 +18 22 36.1   691 – Steward Observatory, Kitt Peak-Spacewatch MPS 256558
2008 10 01.35995 02 19 34.55 +18 15 51.1 20.8 V 691 – Steward Observatory, Kitt Peak-Spacewatch MPS 257784
2008 10 01.38100 02 19 33.74 +18 15 48.8 20.6 V 691 – Steward Observatory, Kitt Peak-Spacewatch MPS 257784
2008 10 01.39863 02 19 33.08 +18 15 46.8 20.6 V 691 – Steward Observatory, Kitt Peak-Spacewatch MPS 257784
2008 10 08.44435 02 14 40.99 +17 58 20.3 20.2 V G96 – Mt. Lemmon Survey MPS 259123
2008 10 08.44836 02 14 40.81 +17 58 19.7 20.2 V G96 – Mt. Lemmon Survey MPS 259123
2008 10 08.45242 02 14 40.59 +17 58 18.7 20.3 V G96 – Mt. Lemmon Survey MPS 259123
2008 10 08.45646 02 14 40.41 +17 58 18.1 20.2 V G96 – Mt. Lemmon Survey MPS 259123
2008 10 09.32757 02 13 59.29 +17 55 32.4 20.4 V 691 – Steward Observatory, Kitt Peak-Spacewatch MPS 259123
2008 10 09.34519 02 13 58.39 +17 55 28.1 20.1 V 691 – Steward Observatory, Kitt Peak-Spacewatch MPS 259123
2008 10 09.36283 02 13 57.49 +17 55 25.3 20.2 V 691 – Steward Observatory, Kitt Peak-Spacewatch MPS 259123
2008 12 02.22569 01 31 21.75 +13 20 10.3 20.7 V G96 – Mt. Lemmon Survey MPS 267396
2008 12 02.23222 01 31 21.68 +13 20 08.9 20.4 V G96 – Mt. Lemmon Survey MPS 267396
2008 12 02.23882 01 31 21.57 +13 20 07.5 20.4 V G96 – Mt. Lemmon Survey MPS 267396
2008 12 02.24547 01 31 21.50 +13 20 06.2 20.5 V G96 – Mt. Lemmon Survey MPS 267396
2010 02 07.717103 14 57 28.22 -19 42 06.8   C51 – WISE MPS 333453
2010 02 07.783319 14 57 32.170 -19 42 27.61   C51 – WISE MPS 904007
2010 02 07.849407 14 57 36.44 -19 42 49.8   C51 – WISE MPS 333453
2010 02 07.915624 14 57 40.522 -19 43 09.66   C51 – WISE MPS 904007
2010 02 07.981712 14 57 44.74 -19 43 32.0   C51 – WISE MPS 333453
2010 02 08.114144 14 57 53.09 -19 44 15.1   C51 – WISE MPS 333453
2010 05 06.34718 14 46 30.25 -19 54 32.5 20.9 V G96 – Mt. Lemmon Survey MPS 324831
2010 05 06.35252 14 46 29.92 -19 54 30.4 20.6 V G96 – Mt. Lemmon Survey MPS 324831
2010 05 06.35788 14 46 29.60 -19 54 28.8 20.4 V G96 – Mt. Lemmon Survey MPS 324831
2010 05 06.36330 14 46 29.24 -19 54 27.3 20.4 V G96 – Mt. Lemmon Survey MPS 324831
2013 01 05.30132 08 50 12.47 +16 49 09.4 19.9 V 691 – Steward Observatory, Kitt Peak-Spacewatch MPS 450862
2013 01 05.31898 08 50 11.69 +16 49 09.9 20.0 V 691 – Steward Observatory, Kitt Peak-Spacewatch MPS 450862
2013 01 05.33665 08 50 10.92 +16 49 10.3 20.2 V 691 – Steward Observatory, Kitt Peak-Spacewatch MPS 450862
2013 01 05.43144 08 50 06.75 +16 49 12.8 19.8 V G96 – Mt. Lemmon Survey MPS 450862
2013 01 05.43831 08 50 06.43 +16 49 13.2 19.9 V G96 – Mt. Lemmon Survey MPS 450862
2013 01 05.44567 08 50 06.10 +16 49 13.3 19.9 V G96 – Mt. Lemmon Survey MPS 450862
2013 01 05.45260 08 50 05.82 +16 49 13.6 20.1 V G96 – Mt. Lemmon Survey MPS 450862
2013 01 15.40340 08 41 51.43 +16 59 08.1 19.6 V 703 – Catalina Sky Survey MPS 452228
2013 01 15.41134 08 41 50.92 +16 59 08.2 19.6 V 703 – Catalina Sky Survey MPS 452228
2013 01 15.41932 08 41 50.56 +16 59 09.6 19.6 V 703 – Catalina Sky Survey MPS 452228
2013 01 15.42721 08 41 49.99 +16 59 10.3 19.3 V 703 – Catalina Sky Survey MPS 452228
2013 01 17.23427 08 40 06.22 +17 01 48.4 19.6 V 691 – Steward Observatory, Kitt Peak-Spacewatch MPS 452228
2013 01 17.25238 08 40 05.08 +17 01 50.2 19.6 V 691 – Steward Observatory, Kitt Peak-Spacewatch MPS 452228
